X  Close Eső holnap reggel.
Conditions Temperature Feels Precipitation Wind Wind Direction UV index Pressure
00:00 rain Gyenge eső lehetséges 16° 0.88 mm 30% 20-43 km/h NNE NNE - 1017,6
01:00 rain Eső 16° 1.22 mm 49% 16-33 km/h North North - 1018,1
02:00 rain Eső 16° 1.51 mm 68% 14-27 km/h NNW NNW - 1018,4
03:00 rain Eső 15° 1.04 mm 70% 14-26 km/h NNW NNW - 1018,7
04:00 rain Gyenge eső lehetséges 14° 0.45 mm 64% 16-29 km/h NNW NNW - 1018,8
05:00 rain Gyenge eső lehetséges 14° 0.25 mm 56% 17-30 km/h North North - 1019,2
06:00 rain Gyenge szitálás lehetséges 14° 0.19 mm 33% 16-27 km/h North North - 1019,7
07:00 cloudy Borult idő 14° 0.14 mm 16% 16-22 km/h NNE NNE uv-1 1020,5
08:00 cloudy Borult idő 15° 0.09 mm 8% 15-19 km/h NE NE uv-1 1021,2
09:00 cloudy Borult idő 16° 0.04 mm 6% 14-16 km/h NE NE uv-2 1021,7
10:00 cloudy Borult idő 16° 0.01 mm 3% 13-15 km/h NE NE uv-3 1022,3
11:00 cloudy Borult idő 17° - 12-14 km/h NNE NNE uv-4 1022,5
12:00 cloudy Borult idő 17° - 11-13 km/h NNE NNE uv-4 1022,6
13:00 cloudy Borult idő 18° 0.01 mm 2% 10-14 km/h NNE NNE uv-4 1022,6
14:00 cloudy Borult idő 19° 0.01 mm 2% 10-15 km/h North North uv-4 1022,8
15:00 partly-cloudy-day Erős felhősödés 20° 0.01 mm 1% 11-15 km/h North North uv-4 1022,6
16:00 partly-cloudy-day Erős felhősödés 21° - 11-15 km/h North North uv-3 1022,2
17:00 partly-cloudy-day Közepes felhősödés 21° - 12-14 km/h North North uv-2 1022,0
18:00 partly-cloudy-day Közepes felhősödés 21° - 11-14 km/h North North uv-1 1022,1
19:00 clear-day Derült 20° - 11-13 km/h North North - 1022,2
20:00 clear-day Derült 19° - 10-13 km/h North North - 1022,4
21:00 clear-night Derült 18° - 10-13 km/h North North - 1022,6
22:00 clear-night Derült 17° - 10-13 km/h North North - 1023,0
23:00 clear-night Derült 16° - 10-14 km/h NNE NNE - 1023,3
00:00 clear-night Derült 15° - 10-13 km/h North North - 1023,4
01:00 clear-night Derült 14° - 9-12 km/h North North - 1024,0
02:00 clear-night Derült 14° - 9-11 km/h North North - 1023,9
03:00 clear-night Derült 13° - 9-10 km/h North North - 1023,9
04:00 clear-night Derült 12° - 8-8 km/h North North - 1023,0
05:00 clear-night Derült 12° - 8-9 km/h North North - 1022,9
06:00 clear-day Derült 13° - 9-13 km/h NNE NNE - 1023,0
07:00 clear-day Derült 15° - 11-20 km/h NNE NNE uv-1 1023,1
08:00 clear-day Derült 17° - 12-24 km/h NNE NNE uv-2 1023,5
09:00 clear-day Derült 18° - 13-23 km/h NNE NNE uv-3 1023,4
10:00 clear-day Derült 20° - 12-20 km/h NE NE uv-5 1023,0
11:00 clear-day Derült 20° - 12-17 km/h NE NE uv-7 1022,6
12:00 clear-day Derült 21° - 11-15 km/h NE NE uv-8 1022,2
13:00 clear-day Derült 22° - 10-13 km/h NNE NNE uv-8 1021,7
14:00 clear-day Derült 22° - 9-12 km/h NNE NNE uv-7 1021,3
15:00 clear-day Derült 23° - 9-12 km/h NNE NNE uv-5 1020,7
16:00 partly-cloudy-day Közepes felhősödés 23° - 9-12 km/h NE NE uv-4 1020,2
17:00 partly-cloudy-day Közepes felhősödés 23° - 9-12 km/h NE NE uv-2 1019,7
18:00 partly-cloudy-day Közepes felhősödés 23° - 8-11 km/h NE NE uv-1 1019,6
19:00 partly-cloudy-day Közepes felhősödés 21° - 7-9 km/h ENE ENE - 1019,5
20:00 partly-cloudy-day Közepes felhősödés 20° - 7-8 km/h ENE ENE - 1019,5
21:00 clear-night Derült 18° - 6-8 km/h ENE ENE - 1019,6
22:00 clear-night Derült 17° - 6-7 km/h ENE ENE - 1019,4
23:00 clear-night Derült 16° - 6-8 km/h ENE ENE - 1019,5
00:00 clear-night Derült 15° - 6-8 km/h ENE ENE - 1019,5